Tracking 33744 objects as of 12-Apr-2026
HD Live streaming from Space Station
objects crossing your sky now

ICOR SV

Track ICOR SV now!
10-day predictions


NORAD ID: 68127
Int'l Code: 2026-046A
Perigee: 208.4 km
Apogee: 298.2 km
Inclination: 123.1 °
Period: 89.4 minutes
Semi major axis: 6624 km
RCS: Unknown
Launch date: March 12, 2026
Source: United States (US)
Launch site: AIR FORCE WESTERN TEST RANGE (AFWTR)
Your satellite tracking list
Your tracking list is empty




NASA's NSSDC Master Catalog

Two Line Element Set (TLE):
1 68127U 26046A   26101.55921407  .00769640  12562-4  54479-3 0  9999
2 68127 123.0682 357.5162 0067765 253.4526 105.9106 16.10240033  4843
Source of the keplerian elements: AFSPC